Time,TemperatureF,DewpointF,PressureIn,WindDirection,WindDirectionDegrees,WindSpeedMPH,WindSpeedGustMPH,Humidity,HourlyPrecipIn,Conditions,Clouds,dailyrainin,SoftwareType,DateUTC
2013-09-05 00:04:00,84.0,79.0,30.01,NE,55,6.0,13.0,85,0.00,,,0.18,,2013-09-05 04:04:00,
2013-09-05 00:24:00,83.0,78.0,30.01,NE,53,9.0,15.0,85,0.00,,,0.18,,2013-09-05 04:24:00,
2013-09-05 00:53:00,83.0,78.0,30.00,ENE,72,6.0,17.0,84,0.00,,,0.18,,2013-09-05 04:53:00,
2013-09-05 01:23:00,83.0,78.0,30.00,East,94,7.0,11.0,84,0.00,,,0.18,,2013-09-05 05:23:00,
2013-09-05 01:52:00,83.0,78.0,29.98,ENE,68,6.0,12.0,85,0.00,,,0.18,,2013-09-05 05:52:00,
2013-09-05 02:02:00,83.0,78.0,29.98,ENE,68,6.0,12.0,85,0.00,,,0.18,,2013-09-05 06:02:00,
2013-09-05 02:22:00,83.0,78.0,29.98,East,82,6.0,10.0,85,0.00,,,0.17,,2013-09-05 06:22:00,
2013-09-05 02:52:00,83.0,78.0,29.97,ENE,57,7.0,12.0,86,0.00,,,0.17,,2013-09-05 06:52:00,
2013-09-05 03:12:00,83.0,78.0,29.96,ESE,115,8.0,15.0,86,0.00,,,0.17,,2013-09-05 07:12:00,
2013-09-05 03:23:00,83.0,78.0,29.96,East,82,7.0,14.0,86,0.00,,,0.17,,2013-09-05 07:23:00,
2013-09-05 03:52:00,83.0,78.0,29.96,ESE,112,7.0,13.0,86,0.00,,,0.17,,2013-09-05 07:52:00,
2013-09-05 04:22:00,83.0,78.0,29.95,SE,131,6.0,13.0,85,0.00,,,0.17,,2013-09-05 08:22:00,
2013-09-05 04:52:00,83.0,78.0,29.95,East,86,8.0,14.0,84,0.00,,,0.17,,2013-09-05 08:52:00,
2013-09-05 05:22:00,83.0,78.0,29.96,ESE,118,8.0,14.0,84,0.00,,,0.17,,2013-09-05 09:22:00,
2013-09-05 05:54:00,83.0,77.0,29.96,East,88,7.0,13.0,83,0.00,,,0.17,,2013-09-05 09:54:00,
2013-09-05 06:23:00,83.0,78.0,29.96,East,94,7.0,16.0,84,0.00,,,0.17,,2013-09-05 10:23:00,
2013-09-05 06:53:00,83.0,78.0,29.97,East,83,7.0,14.0,84,0.00,,,0.17,,2013-09-05 10:53:00,
2013-09-05 07:22:00,83.0,77.0,29.97,ESE,107,8.0,15.0,83,0.00,,,0.17,,2013-09-05 11:22:00,
2013-09-05 07:52:00,83.0,77.0,29.98,ESE,102,9.0,15.0,83,0.00,,,0.17,,2013-09-05 11:52:00,
2013-09-05 08:13:00,83.0,77.0,29.98,SE,130,9.0,15.0,82,0.00,,,0.17,,2013-09-05 12:13:00,
2013-09-05 08:22:00,84.0,78.0,29.98,ENE,71,8.0,15.0,82,0.00,,,0.17,,2013-09-05 12:22:00,
2013-09-05 08:32:00,84.0,78.0,29.98,ENE,71,8.0,15.0,82,0.00,,,0.17,,2013-09-05 12:32:00,
2013-09-05 08:52:00,85.0,78.0,29.99,East,95,6.0,12.0,80,0.00,,,0.17,,2013-09-05 12:52:00,
2013-09-05 09:22:00,86.0,78.0,29.99,East,79,9.0,17.0,77,0.00,,,0.17,,2013-09-05 13:22:00,
2013-09-05 09:53:00,87.0,79.0,30.00,East,81,8.0,15.0,77,0.00,,,0.17,,2013-09-05 13:53:00,
2013-09-05 10:22:00,88.0,80.0,30.01,ENE,65,9.0,14.0,77,0.00,,,0.17,,2013-09-05 14:22:00,
2013-09-05 10:52:00,88.0,79.0,30.02,East,86,7.0,13.0,75,0.00,,,0.17,,2013-09-05 14:52:00,
2013-09-05 11:22:00,89.0,79.0,30.02,ESE,107,7.0,12.0,73,0.00,,,0.17,,2013-09-05 15:22:00,
2013-09-05 11:54:00,90.0,80.0,30.02,SE,146,7.0,13.0,73,0.00,,,0.17,,2013-09-05 15:54:00,
2013-09-05 12:24:00,90.0,80.0,30.02,East,98,8.0,14.0,73,0.00,,,0.17,,2013-09-05 16:24:00,
2013-09-05 12:54:00,91.0,80.0,30.02,ESE,120,8.0,16.0,71,0.00,,,0.17,,2013-09-05 16:54:00,
2013-09-05 13:23:00,90.0,80.0,30.02,East,96,8.0,15.0,73,0.00,,,0.17,,2013-09-05 17:23:00,
2013-09-05 13:52:00,91.0,81.0,30.00,East,92,10.0,14.0,72,0.00,,,0.17,,2013-09-05 17:52:00,
2013-09-05 14:12:00,90.0,80.0,30.00,ESE,115,9.0,14.0,72,0.00,,,0.17,,2013-09-05 18:12:00,
2013-09-05 14:22:00,91.0,80.0,30.01,East,101,6.0,13.0,70,0.00,,,0.17,,2013-09-05 18:22:00,
2013-09-05 14:52:00,91.0,81.0,30.00,SSE,163,8.0,13.0,72,0.00,,,0.17,,2013-09-05 18:52:00,
2013-09-05 15:22:00,92.0,82.0,29.98,ESE,115,6.0,12.0,72,0.00,,,0.17,,2013-09-05 19:22:00,
2013-09-05 15:52:00,90.0,81.0,29.97,ESE,115,7.0,13.0,74,0.00,,,0.17,,2013-09-05 19:52:00,
2013-09-05 16:22:00,90.0,80.0,29.96,ESE,111,6.0,12.0,72,0.00,,,0.17,,2013-09-05 20:22:00,
2013-09-05 16:52:00,89.0,79.0,29.96,East,87,8.0,13.0,73,0.00,,,0.17,,2013-09-05 20:52:00,
2013-09-05 17:21:00,90.0,80.0,29.95,East,96,7.0,12.0,73,0.00,,,0.17,,2013-09-05 21:21:00,
2013-09-05 17:54:00,89.0,78.0,29.95,East,96,6.0,13.0,71,0.00,,,0.17,,2013-09-05 21:54:00,
2013-09-05 18:24:00,89.0,79.0,29.96,East,91,6.0,11.0,73,0.00,,,0.00,,2013-09-05 22:24:00,
2013-09-05 18:33:00,89.0,79.0,29.96,East,91,6.0,11.0,73,0.00,,,0.00,,2013-09-05 22:33:00,
2013-09-05 18:53:00,88.0,79.0,29.96,ENE,61,7.0,13.0,75,0.00,,,0.00,,2013-09-05 22:53:00,
2013-09-05 19:22:00,86.0,78.0,29.96,East,81,7.0,12.0,76,0.00,,,0.00,,2013-09-05 23:22:00,
2013-09-05 19:53:00,85.0,77.0,29.96,ENE,78,6.0,12.0,77,0.00,,,0.00,,2013-09-05 23:53:00,
2013-09-05 20:22:00,85.0,78.0,29.96,East,92,6.0,12.0,79,0.00,,,0.00,,2013-09-06 00:22:00,
2013-09-05 20:52:00,85.0,78.0,29.97,ENE,67,6.0,12.0,80,0.00,,,0.00,,2013-09-06 00:52:00,
2013-09-05 21:22:00,84.0,78.0,29.98,ENE,60,8.0,13.0,81,0.00,,,0.00,,2013-09-06 01:22:00,
2013-09-05 21:42:00,84.0,78.0,29.98,East,88,8.0,12.0,81,0.00,,,0.00,,2013-09-06 01:42:00,
2013-09-05 21:52:00,84.0,77.0,29.98,East,92,6.0,13.0,80,0.00,,,0.00,,2013-09-06 01:52:00,
2013-09-05 22:22:00,84.0,78.0,29.99,ENE,63,6.0,10.0,82,0.00,,,0.00,,2013-09-06 02:22:00,
2013-09-05 22:52:00,84.0,78.0,30.00,NE,55,6.0,14.0,82,0.00,,,0.00,,2013-09-06 02:52:00,
2013-09-05 23:22:00,85.0,79.0,30.00,East,84,7.0,13.0,82,0.00,,,0.00,,2013-09-06 03:22:00,
2013-09-05 23:55:00,85.0,79.0,30.00,East,90,6.0,13.0,83,0.00,,,0.00,,2013-09-06 03:55:00,